Regional Weather Roundup
Issued by NWS Newport/Morehead, NC

Current Version | Previous Version | Graphics & Text | Print | Product List | Glossary Off
Versions: 1 2 3 4 5 6 7 8 9 10 11 12 13 14 15 16 17 18 19 20 21 22 23 24 25 26 27 28 29 30 31 32 33 34 35 36 37 38 39 40 41 42 43 44 45 46 47 48 49 50

170
ASUS42 KMHX 292013
RWRMHX
WEATHER ROUNDUP FOR EASTERN NORTH CAROLINA
NATIONAL WEATHER SERVICE NEWPORT/MOREHEAD CITY NC
400 PM EDT WED MAR 29 2017

NOTE: "FAIR" INDICATES FEW OR NO CLOUDS BELOW 12,000 FEET
WITH NO SIGNIFICANT WEATHER AND/OR OBSTRUCTIONS TO VISIBILITY

NCZ015>017-031-032-045>047-102-103-292100-
NORTH COAST

CITY           SKY/WX    TMP DP  RH WIND       PRES   REMARKS
EDENTON        NOT AVBL
ELIZABETH CITY PTSUNNY   60  49  66 NE13      30.08S
KITTY HAWK     NOT AVBL
MANTEO         MOSUNNY   56  46  71 NE15      30.09S

$$

NCZ045>047-081-094-103-104-292100-
CENTRAL COAST

CITY           SKY/WX    TMP DP  RH WIND       PRES   REMARKS
FRISCO         SUNNY     58  47  66 NE10G25   30.07S

$$

NCZ095-097-098-100-101-292100-
SOUTHERN COAST

CITY           SKY/WX    TMP DP  RH WIND       PRES   REMARKS
BEAUFORT       SUNNY     68  54  60 NE13      30.06R
CEDAR ISLAND   NOT AVBL
JACKSONVILLE   NOT AVBL
PINEY ISLAND   CLEAR    N/A N/A N/A NE10      30.07S
WILMINGTON     SUNNY     70  58  65 SE13      30.03S


$$

NCZ011>013-027>030-043-044-078>080-089-090>093-098-292100-
COASTAL PLAIN

CITY           SKY/WX    TMP DP  RH WIND       PRES   REMARKS
AHOSKIE        NOT AVBL
CLINTON        MOSUNNY   74  58  55 NE9       30.05S
ELIZABETHTOWN  MOSUNNY   75  56  51 CALM      30.02S
GOLDSBORO      PTSUNNY   69  55  59 NE6       30.04S
GREENVILLE     CLOUDY    68  54  60 CALM      30.07F
HAVELOCK       NOT AVBL
KENANSVILLE    PTSUNNY   70  55  60 N6        30.05F
KINSTON        CLOUDY    68  54  60 NE7       30.07S
NEW BERN       CLOUDY    68  55  63 NE10      30.06S
RICHLANDS      CLOUDY    70  56  61 N7        30.05S
ROCKY MOUNT    CLOUDY    69  53  56 VRB3      30.06F
WASHINGTON     PTSUNNY   66  53  63 N5        30.07R
WHITEVILLE     MOSUNNY   77  55  47 N5        30.00S

$$

AMZ130-135-150-152-154-156-158-170-250-252-270-ANZ085-086-088-633-658-670-292100-
MARINE OBSERVATIONS

STATION/POSITION TIME  TEMP    WIND        PRES    WAVE   SWELL
                       AIR SEA DIR/SP/G            HT/PER HT/PER
                 (UTC) (F)     (DEG/KT/KT) (MB)    (FT/S) (FT/S)
CHESAPEAKE LIGHT NOT AVBL
64 E VA BEACH    1950   50 50   20/ 16/ 17 1018.6    6/ 7   3/ 7
DUCK             1948   50 51   30/ 13/ 14 1018.7
2 E DUCK         2000      51                N/A     4/10   2/11
OREGON INLET     1942   51 58   20/ 14/ 17 1018.6
13E OREGON INLT  1948      49                N/A     5/ 7   3/ 7
HATTERAS CG      1948   54 61   20/ 14/ 18 1018.0
DIAMOND BUOY     1950   57 73   30/ 21/ 25 1017.7    6/ 9   3/ 9
CAPE LOOKOUT     2000   59      40/ 20/ 22 1017.6
BEAUFORT LAB     1948   64 62   40/ 10/ 15 1016.8
30 SE NEW RVR IN 1908   60      60/ 14/ 17 1017.7
30 SE NEW RVR IN 1943      64                N/A     6/10   2/11
27 SE WRIGHTSVLE 1908   62 74   70/ 16/ 21 1016.6
5 SE WRIGHTSVLE  1908   61 59   90/ 10/ 17 1017.2
225 S CAPE HAT   1950   73 73  320/  6/  8 1014.7    6/10   7/10
41 SE CHARLESTON 1950   70 71   30/ 10/ 12 1015.6    4/10   3/10

$$




USA.gov is the U.S. government's official web portal to all federal, state and local government web resources and services.